Loading...
The immersive experience

Bkoolers Stay Home Cup

R Bkoolers Stay Home Cup

From 20/03 to 17/04

Stay at home, but keep cycling
General Rules
Bkoolers Stay Home Cup

Stages: 6

How to get involved?

You're not a premium subscriber yet? Remember you can try it for FREE for 1 month. Download Bkool Cycling and pair your smart trainer of any brand. When you enter Bkool Cycling, you'll see the stage corresponding to each week at the top. Finish the session and save it. Ride the stages whenever you want and repeat them as many times as you need. Your best time will always be recorded in the ranking.

Register

Ranking

Pos. Name Time Dif.
1 CountryCodi (UNDER REVIEW) 0:26:33
2 CountryMaartin (UNDER REVIEW) 0:27:55 0:01:22
3 CountrySonne76 (UNDER REVIEW) 0:29:31 0:02:58
4 CountryDavid Martínez 0:30:36 0:04:03
5 CountryJuanjo Madrid 0:32:20 0:05:47
6 CountryDaniel Arias Hernando 0:32:47 0:06:14
7 CountryJacobSkovsgaard[eCKD] 0:33:07 0:06:34
8 CountryCJR-LAZKANO lazkano 0:33:23 0:06:50
9 CountryRovira 0:33:36 0:07:03
10 CountryFELDBALLE Rasmus (Friktion.eu) 0:33:39 0:07:06
11 Country5 Uldahl 0:33:59 0:07:26
12 CountryArne Pedersen 0:33:59 0:07:26
13 CountryD.FBach.Flemming.Bach-5-DCU 0:34:01 0:07:28
14 CountryFlorian Foucachon 0:34:01 0:07:28
15 CountryCJR-ABERASTURI 0:34:04 0:07:31
16 CountryKurt Dahl 0:34:15 0:07:42
17 CountryFilsø Aktiv Naturferie.dk BLP 0:34:26 0:07:53
18 CountryFer MMR 0:34:27 0:07:54
19 CountryDavid Jorge 0:34:31 0:07:58
20 CountryDCU.Finn Brask 0:34:33 0:08:00
21 CountryDaniel Tasano 0:34:40 0:08:07
22 CountryCJR-Nicolau 0:34:44 0:08:11
23 Country5 BrianGummiben 0:34:45 0:08:12
24 CountryGaizka Gonzalez Iparraguirre 0:34:55 0:08:22
25 CountryD.Ørum.Martin.Ørum 16 [eCKD] 0:34:56 0:08:23
26 CountryStéphane Demers 0:34:58 0:08:25
27 CountryD.Henrik.Poulsen (eCKD) 0:35:01 0:08:28
28 Countrymiguel angel fernandez ruiz 0:35:04 0:08:31
29 CountryShumi31 0:35:07 0:08:34
30 CountryAlvaro Alonso galve 0:35:09 0:08:36
31 CountryJOSITO MORENO PEREZ 0:35:10 0:08:37
32 Country14 Bogø (BLP KICKR) 0:35:10 0:08:37
33 CountryAitor Ameztoi 0:35:12 0:08:39
34 CountryTriAle Martinez 0:35:24 0:08:51
35 CountryRs full-power 0:35:25 0:08:52
36 CountryI.Moron 0:35:31 0:08:58
37 CountryCJR-BAGÜES Bagües Kalparsoro 0:35:31 0:08:58
38 CountryKai TCK eCKD 0:35:33 0:09:00
39 CountryHenrik.S 0:35:33 0:09:00
40 CountryCJR-Josemi 0:35:33 0:09:00
41 CountryAndrea Agostini 0:35:38 0:09:05
42 Country16 HvorErMinBmx 0:35:40 0:09:07
43 Countryluchoayala 0:35:47 0:09:14
44 CountryPatrick Fisher 0:35:48 0:09:15
45 CountryNickieagle(BLP)(eCKD) 0:35:48 0:09:15
46 CountryDaniel Planells Pereyra 0:35:55 0:09:22
47 CountryDavy Lucion 0:35:57 0:09:24
48 CountryD.mskov.Michael.Skov [eCKD] 0:35:59 0:09:26
49 CountryJuan Calero Mármol 0:36:05 0:09:32
50 CountryCOBBENECOB TEAM 0:36:07 0:09:34
51 CountryD.CBERING 0:36:09 0:09:36
52 Country16.Hr'Thuen af Vesterborg 0:36:10 0:09:37
53 CountryCJR-RODRIGUEZ Rodriguez Martin 0:36:11 0:09:38
54 CountryRaul E 0:36:12 0:09:39
55 CountryMortenBP eCKD 0:36:13 0:09:40
56 CountryRúni 0:36:13 0:09:40
57 CountryDavid Santos 0:36:13 0:09:40
58 Countryluciano fuentes 0:36:15 0:09:42
59 CountryDavid.G.L. 0:36:15 0:09:42
60 CountryRH_Vejle 0:36:16 0:09:43
61 CountryDani Roman 0:36:18 0:09:45
62 CountryF. Rueda 0:36:18 0:09:45
63 Countrycarlos suarez 0:36:19 0:09:46
64 CountryJORGE ARCAS PEÑA 0:36:19 0:09:46
65 CountrySprinteren 0:36:20 0:09:47
66 CountryChory 0:36:22 0:09:49
67 CountryPippo Rodeo 0:36:24 0:09:51
68 CountryJ-S COSPIN 0:36:24 0:09:51
69 CountryBioziklik B&T 0:36:25 0:09:52
70 CountryBoroWar 0:36:25 0:09:52
71 Countrycristian ruiz gallego 0:36:25 0:09:52
72 CountryDani Cortés CCRV 0:36:26 0:09:53
73 Countryoliv 0:36:26 0:09:53
74 CountryMikko Tikkanen 0:36:27 0:09:54
75 CountryTisser 0:36:28 0:09:55
76 CountryTONY.S 0:36:28 0:09:55
77 CountryVictor G.Gende 0:36:29 0:09:56
78 CountryRik de Groot 0:36:30 0:09:57
79 Countryhugoruizsuarez 0:36:32 0:09:59
80 Countrysonidoaspero 0:36:32 0:09:59
81 CountryA.Guerrero orca 0:36:33 0:10:00
82 CountryMads Bayer 0:36:36 0:10:03
83 CountryAsier Peña Lertxundi 0:36:37 0:10:04
84 CountryRidertoons 0:36:39 0:10:06
85 CountryGianni Arena 0:36:40 0:10:07
86 CountryJorge Ortega 0:36:41 0:10:08
87 CountrySimon Jansen 0:36:41 0:10:08
88 CountryVaca_muerta 0:36:42 0:10:09
89 CountryYanick Gaudet 0:36:46 0:10:13
90 CountryKeith (Cyclechat admin) 0:36:47 0:10:14
91 Countrydomenico pozzovivo 0:36:47 0:10:14
92 CountryJulian Debuisson 0:36:48 0:10:15
93 CountryGuillaume L 0:36:52 0:10:19
94 CountryVirus78 0:36:52 0:10:19
95 CountryAvalancha 0:36:54 0:10:21
96 CountryR. Zamarro 0:36:54 0:10:21
97 CountryFranGarcia 0:36:55 0:10:22
98 CountryThomas Helveg 0:37:00 0:10:27
99 CountryBroonko Lee 0:37:00 0:10:27
100 CountryPaco Igle 0:37:00 0:10:27
101 Countrymarc morell dols 0:37:01 0:10:28
102 Countrysteph-tri04 0:37:01 0:10:28
103 CountryFerSab 0:37:02 0:10:29
104 CountryA.Hernando 0:37:03 0:10:30
105 CountryDominique van den Langenberg 0:37:03 0:10:30
106 CountryR. Morla Morla Carrera 0:37:07 0:10:34
107 CountryD.Brian Dalgaard [eCKD] 0:37:07 0:10:34
108 CountryJfernan 0:37:08 0:10:35
109 CountryJonathan Roldán 0:37:08 0:10:35
110 CountryLuis Alberto Casado Hernández 0:37:10 0:10:37
111 CountryMarco Garzelli Benimeli 0:37:12 0:10:39
112 CountryBepo87 0:37:13 0:10:40
113 CountryTomek Kuzmicz 0:37:16 0:10:43
114 CountryØlhunden - De Syngende Ølhunde 0:37:18 0:10:45
115 CountryBendsen 0:37:19 0:10:46
116 CountryLouis B 0:37:19 0:10:46
117 CountryGulillas 0:37:19 0:10:46
118 CountryD.KEAN.Kenneth.Antonsen (eCKD) 0:37:21 0:10:48
119 CountryTeken007 0:37:21 0:10:48
120 CountryRogelio Ramos 0:37:21 0:10:48
121 CountryJOSE LUIS DE GRACIA GARCIA 0:37:22 0:10:49
122 CountryBroni 0:37:23 0:10:50
123 CountryTibo F 0:37:23 0:10:50
124 Countryantonio rodriguez 0:37:23 0:10:50
125 CountryAle Mesa 0:37:25 0:10:52
126 Countrymatthieu bailleul 0:37:26 0:10:53
127 Countrytri93 0:37:27 0:10:54
128 CountryThomas Glocker 0:37:27 0:10:54
129 CountryA. Gorría 0:37:28 0:10:55
130 CountryIñaki Gutiérrez 0:37:28 0:10:55
131 CountryTitoPerales 0:37:31 0:10:58
132 CountryJUAN RUIZ ROJO 0:37:31 0:10:58
133 CountryGontzal Bilbao Perez 0:37:35 0:11:02
134 CountryTaquito 0:37:36 0:11:03
135 CountryStéphane Lombart 0:37:38 0:11:05
136 Country16 Goofey 0:37:39 0:11:06
137 CountryA.Gesto 0:37:39 0:11:06
138 CountryCorrado Minetti 0:37:40 0:11:07
139 CountryMUDOVICH 0:37:42 0:11:09
140 CountryBeast Mode 0:37:44 0:11:11
141 CountryFRAN (ATALAYA BIKE TEAM) 0:37:44 0:11:11
142 CountryJoachim Nielsen 0:37:45 0:11:12
143 CountryBill S (Team Cyclechat) 0:37:46 0:11:13
144 CountryNiels NHH (Toby)[eCKD] 0:37:48 0:11:15
145 CountryP.Eskesen 0:37:49 0:11:16
146 CountryJonu Txapar 0:37:49 0:11:16
147 CountryAirJordan 0:37:50 0:11:17
148 CountryFERNANDO ARJOL CLEMENTE 0:37:50 0:11:17
149 Countrycarmelo urbano 0:37:50 0:11:17
150 CountryGarry 0:37:52 0:11:19
151 CountryD.SigSi.Sigurd.Simonsen [eCKD] 0:37:56 0:11:23
152 CountryFlemming K 0:37:57 0:11:24
153 CountryRafaAlvarez 0:38:01 0:11:28
154 CountryRobcro 0:38:01 0:11:28
155 CountryTetonic 0:38:03 0:11:30
156 CountryJjvg 0:38:04 0:11:31
157 CountryTchoutchoucash 0:38:04 0:11:31
158 CountryIsal Garcia De La Fuente 0:38:05 0:11:32
159 CountryDomart 0:38:05 0:11:32
160 CountryAndy203 0:38:06 0:11:33
161 CountryPozy 0:38:06 0:11:33
162 CountryJOSECAR DELGADO 0:38:06 0:11:33
163 Countryjolasher 0:38:07 0:11:34
164 CountryPaolo Vittozzi 0:38:07 0:11:34
165 CountryRafaelo 0:38:09 0:11:36
166 CountryNacho Martin 0:38:09 0:11:36
167 CountryesteTITAN 0:38:10 0:11:37
168 CountryJoop Harbers 0:38:11 0:11:38
169 CountryMorten (BLP) 0:38:12 0:11:39
170 Countryandrea biroglio 0:38:13 0:11:40
171 CountryD.Barranco 0:38:13 0:11:40
172 Countrytom-more Blazquez tribano 0:38:16 0:11:43
173 CountryMIKEL IMAZ IBARBIA 0:38:16 0:11:43
174 CountryFabcan 0:38:17 0:11:44
175 CountryChristophe Grosjean 0:38:17 0:11:44
176 CountryMarcos blaya 0:38:17 0:11:44
177 CountryRaw 0:38:18 0:11:45
178 Countrypuncheur 0:38:18 0:11:45
179 CountryGalou27 0:38:18 0:11:45
180 CountryMike Joynes 0:38:19 0:11:46
181 CountryCameo cameo latorre 0:38:19 0:11:46
182 CountryCarlos Martinez 0:38:21 0:11:48
183 CountryIker Juantorena 0:38:21 0:11:48
184 CountryGrua Grua 0:38:21 0:11:48
185 CountryAlex Saarinen 0:38:22 0:11:49
186 CountryMiguel Villamarin 0:38:23 0:11:50
187 CountryMxmlrx 0:38:23 0:11:50
188 CountryKÑDS The Donkeys C.C. 0:38:24 0:11:51
189 CountryCATMAN 0:38:24 0:11:51
190 Countryivan doniz 0:38:26 0:11:53
191 Countryxabier umerez 0:38:26 0:11:53
192 CountryFalero 0:38:27 0:11:54
193 CountryLaurent Loiseau 0:38:27 0:11:54
194 CountryFrAnCo jones 0:38:28 0:11:55
195 CountryTigreblanco 0:38:28 0:11:55
196 CountryFerranPix MAASAI 0:38:29 0:11:56
197 CountryCristian Galindo 0:38:29 0:11:56
198 CountryBjørn Hansen.eCKD 0:38:30 0:11:57
199 Countrypiero paganoni 0:38:30 0:11:57
200 CountrycharlyExposito 0:38:31 0:11:58
201 CountryFRAHO 0:38:31 0:11:58
202 Countryfranberlo 0:38:31 0:11:58
203 CountryRafa Márquez 0:38:32 0:11:59
204 CountryPsycX 0:38:34 0:12:01
205 CountryLolerasMolokai 0:38:34 0:12:01
206 CountryJONAN-KERMAN 0:38:35 0:12:02
207 CountryEgoitz Araolaza 0:38:35 0:12:02
208 CountryD. Peralta peralta ruiz 0:38:36 0:12:03
209 CountryHECT0R francés 0:38:38 0:12:05
210 CountryFormanden 0:38:38 0:12:05
211 Countryfranck lepage 0:38:38 0:12:05
212 Countrydrcast78 0:38:38 0:12:05
213 CountryJONI PEREZ 0:38:38 0:12:05
214 CountryJoerg Schmidt 0:38:39 0:12:06
215 CountryJavimobe 0:38:39 0:12:06
216 CountryNicola Giovanelli 0:38:39 0:12:06
217 CountryPerritaCoja 0:38:41 0:12:08
218 CountryAsier Leon Etxaburu 0:38:41 0:12:08
219 CountryRSFF [eCKD] 0:38:41 0:12:08
220 CountryEwald Mairitsch 0:38:43 0:12:10
221 CountryPulpoPaul 0:38:43 0:12:10
222 CountryFernando DC 0:38:44 0:12:11
223 CountryTirsoCabrejas 0:38:44 0:12:11
224 CountryBaracani67 0:38:45 0:12:12
225 CountryRoberto Lemaire 0:38:46 0:12:13
226 CountryBusy91 0:38:46 0:12:13
227 CountryJosé Gregorio Montelongo Marrero 0:38:47 0:12:14
228 CountrySylvain BILHOU 0:38:49 0:12:16
229 CountryMichel Camas 0:38:50 0:12:17
230 CountryJOSE VEGA MARQUEZ 0:38:51 0:12:18
231 CountryTogeeme 0:38:51 0:12:18
232 CountryWolfi 0:38:52 0:12:19
233 CountryRory McEwan 0:38:52 0:12:19
234 CountryGipuz 0:38:53 0:12:20
235 CountryJ. Alguacil 0:38:54 0:12:21
236 CountryHéctor Cuerdo Álvarez 0:38:54 0:12:21
237 CountryWilliam Worzel 0:38:54 0:12:21
238 CountryDams 0:38:55 0:12:22
239 CountryEr Juli 0:38:56 0:12:23
240 CountryAlex Fernandez Salamanca 0:38:56 0:12:23
241 Countrytoni lopez 0:38:56 0:12:23
242 CountryOld Mike 0:38:57 0:12:24
243 CountryChristoffer Wulff 0:38:58 0:12:25
244 CountryVicente Martinez Muñoz 0:38:58 0:12:25
245 Countrysteeven simon 0:39:00 0:12:27
246 CountryIban Beroiz 0:39:00 0:12:27
247 CountryRolf Iversen 0:39:01 0:12:28
248 CountryA. Sintsov 0:39:01 0:12:28
249 Country#Jimbo 0:39:03 0:12:30
250 CountryVintage91 0:39:03 0:12:30
251 CountryBrtm 0:39:04 0:12:31
252 CountrySierra verde 0:39:04 0:12:31
253 CountryBenanzi 0:39:06 0:12:33
254 CountryDavid Ros Ajo 0:39:09 0:12:36
255 Countryjesus cobos 0:39:10 0:12:37
256 CountryRicardo Felix 0:39:10 0:12:37
257 CountryDay39 0:39:10 0:12:37
258 Countrycchristian31 0:39:10 0:12:37
259 CountryTONYGTT 0:39:11 0:12:38
260 CountryD.PTIDE.Per.Tideman [eCKD] 0:39:12 0:12:39
261 CountryMB/Definitive 0:39:12 0:12:39
262 CountryGUIO rodriguez 0:39:12 0:12:39
263 CountryJesusMo 0:39:13 0:12:40
264 CountryDCU.John.Dahl-Pedersen 12 0:39:14 0:12:41
265 CountryKolvig 0:39:15 0:12:42
266 CountryJesper Odder 0:39:16 0:12:43
267 CountryJose Aroca zambrano 0:39:16 0:12:43
268 CountryPaweł Strojny 0:39:17 0:12:44
269 CountryKoldo Armendariz Lasa 0:39:18 0:12:45
270 Countrydavid moreno ucero 0:39:18 0:12:45
271 Countrygalvangerard 0:39:18 0:12:45
272 CountryJ.CASTAN 0:39:18 0:12:45
273 CountryJOSE ANTONIO PRIEGO PULIDO 0:39:18 0:12:45
274 CountryJOGARCAR GX 0:39:19 0:12:46
275 CountryEduardo Marcos Gonzalez 0:39:19 0:12:46
276 Country8 H Fristrup Fristrup 0:39:21 0:12:48
277 CountryCristhian Montoya Giraldo 0:39:22 0:12:49
278 CountryMaiquel 0:39:23 0:12:50
279 Countryivanzot 0:39:23 0:12:50
280 Countrymarcos lopez 0:39:23 0:12:50
281 CountryD.Muela 0:39:24 0:12:51
282 CountryStenberg 0:39:25 0:12:52
283 CountryCerfix70 0:39:25 0:12:52
284 CountryPablo Martínez 0:39:27 0:12:54
285 Countryoscar olmo 0:39:28 0:12:55
286 CountryVicente Pérez García 0:39:28 0:12:55
287 CountryBrusgaard 0:39:29 0:12:56
288 CountryBatman79 0:39:29 0:12:56
289 CountryNillerboy 0:39:29 0:12:56
290 CountryMichael Tribler 0:39:29 0:12:56
291 CountryRubén De Rubén 0:39:29 0:12:56
292 CountryVictor Manuel Mora Gimenez 0:39:29 0:12:56
293 CountryDefykool 0:39:30 0:12:57
294 Countryjoaquin villarroya 0:39:30 0:12:57
295 CountryE.Garcia 0:39:30 0:12:57
296 CountryGreavespeed 0:39:31 0:12:58
297 CountryMr.Magic Mike 0:39:31 0:12:58
298 CountryRodrigo De Román Renedo 0:39:33 0:13:00
299 Countryfran303 0:39:33 0:13:00
300 CountryD.Flejs.Flemming.Pedersen.eCKD 0:39:33 0:13:00
301 CountryCharly30 0:39:33 0:13:00
302 CountryROBERTO GARCIA FERNANDEZ 0:39:33 0:13:00
303 CountryNandi Mateo Gómez 0:39:34 0:13:01
304 CountryKili 0:39:35 0:13:02
305 CountryJose H. 0:39:35 0:13:02
306 CountryIVANGONGAZ 0:39:35 0:13:02
307 Countryerik hermansen 0:39:35 0:13:02
308 CountryMarcin Basinski 0:39:35 0:13:02
309 CountryM.Schnejder 0:39:36 0:13:03
310 CountryRobertoLúcia 0:39:37 0:13:04
311 CountryRUBEN GARCIA RIVAS 0:39:38 0:13:05
312 Countryoscar rosales 0:39:39 0:13:06
313 CountryHESTURILLO 0:39:39 0:13:06
314 CountryPiui 0:39:39 0:13:06
315 CountryGallego 0:39:40 0:13:07
316 Countrynorberto soto 0:39:40 0:13:07
317 CountryBjarke Nørregaard 0:39:40 0:13:07
318 Countrypaolo Chiti 0:39:40 0:13:07
319 CountryAdrián García Rodríguez 0:39:41 0:13:08
320 Countrycanton 0:39:42 0:13:09
321 CountryJollero 0:39:43 0:13:10
322 Countryfrankly 0:39:43 0:13:10
323 CountryTrekSchleck 0:39:45 0:13:12
324 CountryR. Rojillo 0:39:45 0:13:12
325 CountryOle Stenderup eCKD 0:39:45 0:13:12
326 CountryFrancis Martinez Garrido 0:39:45 0:13:12
327 Countryibon lopez de munain 0:39:46 0:13:13
328 CountryJesús Osuna 0:39:46 0:13:13
329 Countryjavii_74 0:39:47 0:13:14
330 CountryJosé Javi Muñoz Martínez 0:39:47 0:13:14
331 CountryGlenn.N.S.L 0:39:48 0:13:15
332 CountryFrei 0:39:48 0:13:15
333 CountrySMario70 0:39:49 0:13:16
334 CountryJon Brown 0:39:49 0:13:16
335 CountryAndi.monto 0:39:49 0:13:16
336 Countrycyril dufrane 0:39:49 0:13:16
337 CountryDavid Del Pozo 0:39:50 0:13:17
338 CountryEl Gordo 0:39:51 0:13:18
339 CountryFrank Schwab 0:39:52 0:13:19
340 CountryNikros 0:39:53 0:13:20
341 CountryChafa 0:39:53 0:13:20
342 Country1gtidsg 0:39:53 0:13:20
343 CountryFodi 0:39:53 0:13:20
344 CountryBERNETE 0:39:54 0:13:21
345 CountryNES Fornes Berenguer 0:39:54 0:13:21
346 CountryMarce Fernández Fernández 0:39:55 0:13:22
347 CountryKeylor 0:39:55 0:13:22
348 CountryMarroquí 0:39:56 0:13:23
349 CountryMorlita jr 0:39:56 0:13:23
350 Countryjose manuel martin de la vera 0:39:57 0:13:24
351 CountryI. Virgala 0:39:57 0:13:24
352 CountryWeibel 0:39:57 0:13:24
353 CountryMichael Rasche 0:39:57 0:13:24
354 CountryJohnny Larsen 0:39:57 0:13:24
355 CountryDenny Berger 0:39:58 0:13:25
356 CountryTonio18 0:39:58 0:13:25
357 CountryAnder Gorrotxategi Mendigain 0:39:59 0:13:26
358 CountryGuarnicioneroLoco 0:40:00 0:13:27
359 CountryDanni Pedersen 0:40:01 0:13:28
360 CountryJavyvy109 0:40:01 0:13:28
361 CountryRufo27 0:40:02 0:13:29
362 Countrypu3ril 0:40:02 0:13:29
363 CountryEdu Goiri 0:40:03 0:13:30
364 CountryDavid de Cardona. 0:40:03 0:13:30
365 CountryLucas Pietroboni 0:40:03 0:13:30
366 CountryJ.B.J 0:40:04 0:13:31
367 CountryPaco Lopez 0:40:04 0:13:31
368 CountryNino Alcazarén 0:40:05 0:13:32
369 CountryPennyPellón 0:40:05 0:13:32
370 CountryJuan Jose Barroso Racero 0:40:05 0:13:32
371 CountryMatteo Soldi 0:40:06 0:13:33
372 CountryJuan Pablo Jimenez C 0:40:07 0:13:34
373 CountryBartłomiej Bóbski 0:40:07 0:13:34
374 CountryAlan Hann 0:40:08 0:13:35
375 CountryNACHO G. 0:40:08 0:13:35
376 CountryAlberto Martin Ramos 0:40:09 0:13:36
377 CountryJus_Go 0:40:09 0:13:36
378 CountryTorivio 0:40:09 0:13:36
379 CountryGaspar Vañó Pérez 0:40:10 0:13:37
380 CountryJose Andres Nieto 0:40:10 0:13:37
381 CountryJorge Puerto Formigos 0:40:10 0:13:37
382 CountryROBERT MEGIAS 0:40:10 0:13:37
383 CountryRuben Hermida Rodriguez 0:40:11 0:13:38
384 CountryAlberto Rubio Calleja 0:40:13 0:13:40
385 Countryandrea pietrosanti 0:40:13 0:13:40
386 CountryJlesmes 0:40:14 0:13:41
387 CountryCedde13 0:40:14 0:13:41
388 CountryAllan C Bryggeren 0:40:14 0:13:41
389 CountryManuel Galvan 0:40:14 0:13:41
390 CountryEdu Sarti 0:40:14 0:13:41
391 CountryVilla1 0:40:14 0:13:41
392 CountryCapitano 0:40:15 0:13:42
393 CountryHolger Pietsch 0:40:16 0:13:43
394 Countryleonardo Pilcher Garcia 0:40:16 0:13:43
395 CountryArthur 0:40:18 0:13:45
396 CountryCARLOS CIFUENTES MUÑOZ 0:40:18 0:13:45
397 CountryNatán Fernández Fernández 0:40:18 0:13:45
398 CountryLA BESTIA 0:40:18 0:13:45
399 Countryadrien pierson 0:40:19 0:13:46
400 CountryAntonio García Utrero 0:40:19 0:13:46
401 CountryManuel Ponte Lorenzo 0:40:19 0:13:46
402 CountryAndrea Parisse 0:40:19 0:13:46
403 CountryJavier De Haro Molina 0:40:19 0:13:46
404 CountryLuismiTriMarlins 0:40:20 0:13:47
405 CountryPhil Hogan 0:40:20 0:13:47
406 CountryAbel González 0:40:20 0:13:47
407 CountryLUIS MANUEL GARCIA 0:40:20 0:13:47
408 CountryLolo LM 0:40:20 0:13:47
409 CountryCraig G 0:40:21 0:13:48
410 CountryRaul Cebrian 0:40:21 0:13:48
411 CountryJordi VidalSala 0:40:22 0:13:49
412 CountryMarco Sperandio 0:40:22 0:13:49
413 CountryGabriel ACG 0:40:22 0:13:49
414 CountryMichal Krakowski 0:40:22 0:13:49
415 CountryTANG83260 0:40:22 0:13:49
416 CountryZico70 0:40:23 0:13:50
417 CountryTue Berg 0:40:24 0:13:51
418 CountryANTONIO LOPEZ ESCUDERO 0:40:24 0:13:51
419 CountryAddaio 0:40:25 0:13:52
420 CountryRoberto Nicolás 0:40:27 0:13:54
421 CountryColja Wichers 0:40:27 0:13:54
422 CountryUNAI DE LA LLANA 0:40:28 0:13:55
423 CountryPedrote46 0:40:28 0:13:55
424 CountryFrancisco Hernandez 0:40:29 0:13:56
425 CountryJavier de Andrés Alonso 0:40:29 0:13:56
426 CountrySalvador Campos Carmona 0:40:30 0:13:57
427 CountryCarlos Montero Cabezas 0:40:30 0:13:57
428 CountryNeoViLLi_ 0:40:31 0:13:58
429 CountryJmanuelgA 0:40:31 0:13:58
430 CountryACCRO VELO 0:40:32 0:13:59
431 CountryRUBEN PEREZ SALAS 0:40:32 0:13:59
432 CountryWATT 0:40:34 0:14:01
433 CountryJ. de Place 0:40:34 0:14:01
434 Countrytitanus 0:40:34 0:14:01
435 CountryCholo 0:40:34 0:14:01
436 Countrycristian donate rubio 0:40:34 0:14:01
437 CountryErik Sandonis Martín 0:40:35 0:14:02
438 CountryJavielito85 0:40:35 0:14:02
439 CountryMCCONER 0:40:35 0:14:02
440 CountryCorremontes.es 0:40:36 0:14:03
441 CountryCUBINO HUERTA 0:40:37 0:14:04
442 CountryAitor Gandia Torró 0:40:37 0:14:04
443 CountryIñigo Zalduendo 0:40:37 0:14:04
444 CountrySalva Ros 0:40:38 0:14:05
445 CountryLasterketak 0:40:38 0:14:05
446 CountryMarras 0:40:38 0:14:05
447 CountryJaviTri 0:40:38 0:14:05
448 CountryColibri joselu 0:40:39 0:14:06
449 CountryLe Wig 0:40:40 0:14:07
450 CountryGhostyjm 0:40:40 0:14:07
451 CountrySteve Campisi 0:40:40 0:14:07
452 CountryJørgen Juul 0:40:40 0:14:07
453 CountryGertsen/eCDK 0:40:42 0:14:09
454 CountryTxapu 0:40:42 0:14:09
455 CountryIsaac Gala Garcia 0:40:43 0:14:10
456 CountryNoel Moral García 0:40:43 0:14:10
457 CountryAnder Noain 0:40:43 0:14:10
458 Countrymiguelurquix 0:40:44 0:14:11
459 CountryDamisevi 0:40:44 0:14:11
460 CountryMarco R 0:40:44 0:14:11
461 CountryJavier Aguilera Garvía 0:40:45 0:14:12
462 CountryGargaiz 0:40:46 0:14:13
463 CountryROSAS 0:40:46 0:14:13
464 Countrymarco Reichenauer 0:40:47 0:14:14
465 CountryMarc P3 0:40:48 0:14:15
466 CountryManu Roldan 0:40:48 0:14:15
467 CountryMarcos MP 0:40:49 0:14:16
468 CountryMario C 0:40:49 0:14:16
469 CountryJUANJO CUERDA 0:40:50 0:14:17
470 CountryJavi Celes 0:40:50 0:14:17
471 CountryMartin Carr 0:40:51 0:14:18
472 CountryMaarten Vanbergen 0:40:51 0:14:18
473 CountryAritz Mujika 0:40:51 0:14:18
474 CountryMarkel Orive 0:40:51 0:14:18
475 Countrygrande19 0:40:52 0:14:19
476 CountryALBERTO RODRIGUEZ SANCHEZ 0:40:53 0:14:20
477 CountryAmartin 0:40:53 0:14:20
478 CountryHazbun 0:40:53 0:14:20
479 CountryValentin Alonso 0:40:53 0:14:20
480 CountryCaligiuri.M 0:40:53 0:14:20
481 Countryolivier ackermann 0:40:53 0:14:20
482 CountryPablo C.C.Meira 0:40:54 0:14:21
483 CountryGuadastur 0:40:54 0:14:21
484 CountryCANCE POWER 0:40:55 0:14:22
485 CountryPikeotegi 0:40:55 0:14:22
486 CountryPINTI CCSAB 0:40:55 0:14:22
487 CountryTriletal 0:40:55 0:14:22
488 Countryrodrigo diaz 0:40:55 0:14:22
489 CountryLudo T 0:40:55 0:14:22
490 CountryXSAHUQUI 0:40:56 0:14:23
491 CountryFrancisco Reyes Pozo 0:40:56 0:14:23
492 CountryGianfranco C. 0:40:56 0:14:23
493 CountryRalcaide 0:40:57 0:14:24
494 CountryJAMR 0:40:57 0:14:24
495 Countryalejandro gonzalez 0:40:57 0:14:24
496 CountryGemmerli 0:40:58 0:14:25
497 Countryxabisax 0:40:58 0:14:25
498 CountryMatthew Bartlett 0:40:58 0:14:25
499 CountryAsier Basarte 0:40:58 0:14:25
500 CountryJuan carlos Moreno Álvarez 0:40:58 0:14:25
501 CountryLeo Balbas 0:40:58 0:14:25
502 CountryAitorilo Alonso 0:40:59 0:14:26
503 CountryZapiloto 0:40:59 0:14:26
504 CountryRaul Hinojosa Gonzalez 0:40:59 0:14:26
505 CountryDan Ffrench 0:41:00 0:14:27
506 CountryH.Mortensen 0:41:00 0:14:27
507 CountrySteve Lee 0:41:00 0:14:27
508 CountryHarald Eldøy 0:41:02 0:14:29
509 CountryId Dejbjerg 0:41:02 0:14:29
510 CountryJesus Lafuente Castroviejo 0:41:02 0:14:29
511 CountryA Muusmann 0:41:03 0:14:30
512 CountryHeini eCKD 0:41:04 0:14:31
513 CountryCarlos.Saiz 0:41:05 0:14:32
514 CountryJ.Saleta 0:41:05 0:14:32
515 Countryguillem julià 0:41:05 0:14:32
516 CountryAlvaro Luquin Urmeneta 0:41:05 0:14:32
517 CountryJose Piñol 0:41:05 0:14:32
518 CountryTOLO ROSSELLO 0:41:05 0:14:32
519 CountryTom Clifford 0:41:05 0:14:32
520 CountryIker Hernandez 0:41:07 0:14:34
521 CountryFrédéric Wattier 0:41:07 0:14:34
522 CountryFRANCISCO ANTONIO PRIETO SALVADOR 0:41:07 0:14:34
523 Countryacabezuelo 0:41:08 0:14:35
524 CountryJuan Diego Perez Avila 0:41:08 0:14:35
525 CountryUlises S 0:41:08 0:14:35
526 CountryJavi Carrillo 0:41:09 0:14:36
527 CountryJoseFer BalduBike 0:41:09 0:14:36
528 Countryloïc.g. 0:41:09 0:14:36
529 CountryMathieu Chastel 0:41:09 0:14:36
530 CountryCarlos Gombau 0:41:10 0:14:37
531 CountryAntonio Gámez 0:41:11 0:14:38
532 CountryAlberto Irigoyen Ibarrola 0:41:11 0:14:38
533 CountryJUAN PABLO LECHIGUERO LAHIGUERA 0:41:12 0:14:39
534 CountryRamon Aguilar Fernandez 0:41:13 0:14:40
535 Countryibernaldo 0:41:13 0:14:40
536 CountryDavid Angio 0:41:14 0:14:41
537 Countrydewaele jerome 0:41:14 0:14:41
538 CountryBestyourself 0:41:15 0:14:42
539 CountryThe Beast 0:41:15 0:14:42
540 CountryPablo Hernán Ocaña 0:41:15 0:14:42
541 CountryJoan Maria Campanera Pallarès 0:41:15 0:14:42
542 CountryANTONIO JOSE GOMEZ BAÑON 0:41:15 0:14:42
543 CountryManu BV 0:41:16 0:14:43
544 CountryC.Nicolas Choren 0:41:17 0:14:44
545 CountryDopi 0:41:17 0:14:44
546 CountryBiagio Terrazzano 0:41:17 0:14:44
547 CountryEric Baizán 0:41:18 0:14:45
548 CountryRichard Gillingham 0:41:19 0:14:46
549 CountryJulio Gutierrez 0:41:19 0:14:46
550 Countryi5ra 0:41:19 0:14:46
551 CountryJosan M 0:41:19 0:14:46
552 CountryPatschoe 0:41:20 0:14:47
553 CountryJim Peterson 0:41:20 0:14:47
554 CountryFabioris 0:41:20 0:14:47
555 CountryDio Sierra 0:41:20 0:14:47
556 CountryDom PARIS 0:41:20 0:14:47
557 CountryAngel Sánchez 0:41:20 0:14:47
558 CountryAndyMacca 0:41:21 0:14:48
559 CountrySnos 0:41:21 0:14:48
560 CountryUle Venegas Valle 0:41:22 0:14:49
561 CountrySergio Martinez Puertas 0:41:22 0:14:49
562 Countryjven 0:41:22 0:14:49
563 CountryGAITÁN 0:41:22 0:14:49
564 CountryAdrián Matesanz Bravo 0:41:22 0:14:49
565 CountryGorka Monduate 0:41:23 0:14:50
566 CountryCarraboi 0:41:23 0:14:50
567 CountryGigi Bottali 0:41:23 0:14:50
568 CountryRAFAEL TOLEDO FERNANDEZ 0:41:23 0:14:50
569 CountrySandi128 0:41:24 0:14:51
570 CountryFARMACHUTE 0:41:24 0:14:51
571 CountryJAVIEXUP 0:41:24 0:14:51
572 CountrySeby 0:41:24 0:14:51
573 CountryMATO 0:41:24 0:14:51
574 CountryAlessandro Meneghini 0:41:24 0:14:51
575 CountryDavidBC 0:41:25 0:14:52
576 CountryVilar 0:41:25 0:14:52
577 Countrypepepazos 0:41:25 0:14:52
578 CountryCésar D. Gutiérrez Ivars 0:41:25 0:14:52
579 CountryAlessandria Bike Racing 0:41:26 0:14:53
580 CountryAsier Matellanes 0:41:26 0:14:53
581 CountryRaúl Pi 0:41:27 0:14:54
582 CountryJacek Kozłowski 0:41:27 0:14:54
583 CountryGaona71 0:41:28 0:14:55
584 CountryFinnEke-67år 0:41:28 0:14:55
585 CountryJon Sebastian Ormaza 0:41:28 0:14:55
586 Countrydomenico Saltarella 0:41:28 0:14:55
587 CountryÁlvaro B. 0:41:29 0:14:56
588 CountryOliDj 0:41:30 0:14:57
589 Countryjordi linares hernandez 0:41:30 0:14:57
590 CountryJORGE JARDI MARQUEZ 0:41:30 0:14:57
591 Countryou yeah 0:41:30 0:14:57
592 CountryCurro 0:41:31 0:14:58
593 CountryJac76 0:41:32 0:14:59
594 CountryBrian Kennedy 0:41:32 0:14:59
595 CountryPalanki 0:41:32 0:14:59
596 Countrygabriel 0:41:32 0:14:59
597 CountrySander 0:41:32 0:14:59
598 CountryRoberto Medrano 0:41:33 0:15:00
599 CountrySergio Sabater 0:41:33 0:15:00
600 Countryshimceltic 0:41:33 0:15:00
601 CountryPau Burches Ramon 0:41:33 0:15:00
602 CountryLenny Hartley 0:41:33 0:15:00
603 CountryFonsogrobe 0:41:34 0:15:01
604 CountryMario Heuts 0:41:34 0:15:01
605 CountryMANU 0:41:34 0:15:01
606 CountryTorbjörn Olsson 0:41:34 0:15:01
607 CountryRadames Rodriguez 0:41:34 0:15:01
608 CountrySergio_GM 0:41:34 0:15:01
609 CountryRafael Sainz 0:41:34 0:15:01
610 CountryMark6 0:41:35 0:15:02
611 CountryKykylev11 0:41:35 0:15:02
612 CountryLukas S 0:41:36 0:15:03
613 CountryBeachboy 0:41:36 0:15:03
614 CountryMabetico 0:41:36 0:15:03
615 CountryPinoDP 0:41:36 0:15:03
616 CountryFrédéric Huet 0:41:36 0:15:03
617 CountryGaby 79 0:41:37 0:15:04
618 CountryCesar Villalobos Anchia 0:41:38 0:15:05
619 CountryRoberto Pederzolli 0:41:38 0:15:05
620 CountrySoalleiro 0:41:39 0:15:06
621 Countryole larsen 0:41:40 0:15:07
622 CountryFabien Derouineau 0:41:40 0:15:07
623 CountryJULIAN ARCE AGUADO 0:41:41 0:15:08
624 CountryArturo Garcia 0:41:41 0:15:08
625 CountryRalf Hägele 0:41:41 0:15:08
626 CountryJ.Sanchez 0:41:41 0:15:08
627 CountryAlex Oyarzabal 0:41:41 0:15:08
628 CountryAITZOL BARRONDO 0:41:42 0:15:09
629 CountryBen Shillito 0:41:42 0:15:09
630 CountryAYOZINHO 0:41:43 0:15:10
631 Countryfabien thevelein 0:41:43 0:15:10
632 CountryAdrián Jover Barrachina 0:41:43 0:15:10
633 CountryMathieu Mercier 0:41:44 0:15:11
634 CountryMariano Sanchez Sanchez 0:41:44 0:15:11
635 CountryMUGA 0:41:44 0:15:11
636 CountryOscar Neg 0:41:44 0:15:11
637 CountryOriol Riu 0:41:44 0:15:11
638 CountryJuanjo Sanchez 0:41:45 0:15:12
639 CountryNavas 0:41:45 0:15:12
640 Country5-Gamborg 0:41:45 0:15:12
641 CountryThomas Renz 0:41:45 0:15:12
642 CountryJuan Jesús Sanz Ramos 0:41:45 0:15:12
643 CountryNicolas Cuevas 0:41:45 0:15:12
644 Country3Mervig[eCKD] 0:41:46 0:15:13
645 Countryaciver 0:41:46 0:15:13
646 CountrySobralSport 0:41:46 0:15:13
647 CountryChris B 0:41:47 0:15:14
648 Countrygreggallez 0:41:47 0:15:14
649 CountryJose Manuel Machado Payan 0:41:47 0:15:14
650 CountryFERMIN BLANCO IGLESIAS 0:41:47 0:15:14
651 CountryJan Kruszelnicki 0:41:48 0:15:15
652 CountryChusma 0:41:48 0:15:15
653 CountryHan.Solo 0:41:48 0:15:15
654 CountryJaime Martin 0:41:48 0:15:15
655 CountryDavid Osés 0:41:48 0:15:15
656 Countrygerardo saeta 0:41:48 0:15:15
657 Countryjoaquin tomas ortega 0:41:48 0:15:15
658 CountryBitel 0:41:49 0:15:16
659 CountryRoberto Toquero 0:41:49 0:15:16
660 CountrySalva Morales 0:41:50 0:15:17
661 CountryTuryG66 Lubre 0:41:50 0:15:17
662 CountryPropelalex 0:41:50 0:15:17
663 CountryArenasiz 0:41:50 0:15:17
664 CountryAgustín Montoya Hernández 0:41:50 0:15:17
665 CountryManel G. 0:41:51 0:15:18
666 CountryTomas Alconchel 0:41:51 0:15:18
667 CountryJan Amtoft 0:41:51 0:15:18
668 CountryJ. Gómez 0:41:51 0:15:18
669 CountryPaul Snow 0:41:52 0:15:19
670 Countryjesper larsen 0:41:52 0:15:19
671 CountryMORAGA 0:41:52 0:15:19
672 CountryPhilippe GOSSE 0:41:52 0:15:19
673 CountryRaul Arbo 0:41:53 0:15:20
674 CountryTags 0:41:53 0:15:20
675 CountryJM Sobrao 0:41:53 0:15:20
676 CountryArtacho Corzano 0:41:53 0:15:20
677 CountrySpike 0:41:53 0:15:20
678 CountryRodrigo Amaro Pereda 0:41:53 0:15:20
679 CountryMAKE HAPPY MY DAY . 0:41:54 0:15:21
680 CountryGALI 0:41:54 0:15:21
681 CountryWilly Canard Legrand 0:41:54 0:15:21
682 CountryCarlos Linares 0:41:55 0:15:22
683 Countrybartoli40 0:41:55 0:15:22
684 CountryJ.P. Campo 0:41:55 0:15:22
685 CountrySERGI0680 0:41:55 0:15:22
686 CountryJavier Mora 0:41:55 0:15:22
687 CountryGuybrush Threepwood 0:41:56 0:15:23
688 CountryAlejandro Enfedaque Tejel 0:41:56 0:15:23
689 CountryPablo Du V.D. 0:41:57 0:15:24
690 CountryAndre Lorenzo Lucas 0:41:57 0:15:24
691 CountryLUIS SALVADOR 0:41:57 0:15:24
692 CountryLUIS SALVADOR 0:41:57 0:15:24
693 CountryOIZkar 0:41:58 0:15:25
694 CountryRodrigo Vega 0:41:58 0:15:25
695 CountryDamian Navarro Fructuoso 0:41:58 0:15:25
696 CountryGerman Navarro 0:41:58 0:15:25
697 CountryJ.Aguilera 0:41:58 0:15:25
698 CountryTom Osbaeck 0:41:59 0:15:26
699 CountryES BIKE RUTAS Delgado Lorente 0:41:59 0:15:26
700 Countrystefano ballista 0:42:00 0:15:27
701 CountryTommek 0:42:01 0:15:28
702 CountryManuel Ardid Medina 0:42:01 0:15:28
703 Countryalexs 0:42:01 0:15:28
704 CountryFaber27 0:42:02 0:15:29
705 CountryQuentin DELAIRE 0:42:02 0:15:29
706 CountryJohnnyJ 0:42:03 0:15:30
707 CountrySeb Goss 0:42:03 0:15:30
708 CountryMarco Rodriguez Arrieta 0:42:03 0:15:30
709 Countryscott sexsmith 0:42:03 0:15:30
710 CountryJorge C.A. 0:42:04 0:15:31
711 CountryPacogsx 0:42:04 0:15:31
712 CountryMarco Treps 0:42:04 0:15:31
713 CountryJOSE 1719 0:42:05 0:15:32
714 CountryJOSE ANTONIO MORENO 0:42:05 0:15:32
715 Countrytriki-CM 0:42:05 0:15:32
716 CountryRantos 0:42:06 0:15:33
717 Countrycarlos munoz 0:42:06 0:15:33
718 CountryEduardo Alonso Gomez 0:42:06 0:15:33
719 CountryPaolo Tommei 0:42:06 0:15:33
720 CountryD.Rodriguez 0:42:07 0:15:34
721 CountryBadgeronabike 0:42:07 0:15:34
722 CountryKuba BGR 0:42:07 0:15:34
723 Countrysuperlopez 0:42:07 0:15:34
724 CountryAlejandro Ribera 0:42:07 0:15:34
725 CountryIsidoros Kargatzis 0:42:07 0:15:34
726 CountryBap74 0:42:07 0:15:34
727 CountryRado Kirov 0:42:07 0:15:34
728 CountryCarlos Matas 0:42:08 0:15:35
729 CountryBergZwerg 0:42:08 0:15:35
730 CountryCARLOS6 0:42:08 0:15:35
731 CountrySergi Sureda Codina 0:42:08 0:15:35
732 CountryFer2 Nebre 0:42:09 0:15:36
733 CountryAntonio Luis Madrigal 0:42:10 0:15:37
734 CountryLeighG 0:42:10 0:15:37
735 CountryPablo Maravé Lucas 0:42:10 0:15:37
736 CountryLUNAS 0:42:10 0:15:37
737 Countryion rivero 0:42:11 0:15:38
738 CountryMiguel Rubio Puente 0:42:12 0:15:39
739 Countryfperez 0:42:12 0:15:39
740 CountryLuca Garzelli Benimeli 0:42:12 0:15:39
741 Countryiñaky 0:42:12 0:15:39
742 CountrySlangIT 0:42:12 0:15:39
743 CountryVB Matt 0:42:12 0:15:39
744 CountryTxeng 0:42:13 0:15:40
745 CountryCouce 0:42:13 0:15:40
746 Countrypatxi mundiñano 0:42:13 0:15:40
747 Countrynicolas orellana 0:42:13 0:15:40
748 CountryLuca Palladino 0:42:13 0:15:40
749 CountryXOLEJA 0:42:14 0:15:41
750 Countryalmarro1 0:42:14 0:15:41
751 CountryEnrico MAffei 0:42:14 0:15:41
752 Countryjvelag 0:42:14 0:15:41
753 CountryPablojgr 0:42:14 0:15:41
754 CountryXuCo 0:42:14 0:15:41
755 Countrycosemik 0:42:15 0:15:42
756 CountrySalvattore 0:42:15 0:15:42
757 CountryDaniel Jimenez 0:42:15 0:15:42
758 CountryLIHER imizkoz erasun 0:42:15 0:15:42
759 Country7 TT Team Odder 0:42:16 0:15:43
760 CountryTAZZMANIACO 0:42:16 0:15:43
761 Countrytristan duval 0:42:16 0:15:43
762 CountryHarrybags 0:42:16 0:15:43
763 CountrySergio F.P 0:42:16 0:15:43
764 CountryDavid Garcia 0:42:17 0:15:44
765 CountryFRamirez 0:42:17 0:15:44
766 CountryFerran Martín 0:42:17 0:15:44
767 CountryMark Hayes 0:42:17 0:15:44
768 CountryLORENZO ZANIRATO 0:42:17 0:15:44
769 CountryGorka Zaballa 0:42:18 0:15:45
770 Countrykyle kyle916 0:42:18 0:15:45
771 CountryJavi er 0:42:19 0:15:46
772 CountryJota 0:42:19 0:15:46
773 CountryLuis miguel Bueno Picazo 0:42:19 0:15:46
774 Countryjrmad 0:42:20 0:15:47
775 CountrySergio 0:42:20 0:15:47
776 CountryKim Jensen 0:42:21 0:15:48
777 CountryDavid Sanchez 0:42:21 0:15:48
778 CountryRaul Hernandez Salas 0:42:21 0:15:48
779 CountryCalza 0:42:21 0:15:48
780 CountryJosep Juvanteny Sanchez 0:42:21 0:15:48
781 CountryItaye KICKRcore 0:42:22 0:15:49
782 Countryfernanbiker 0:42:22 0:15:49
783 CountryKeeper 0:42:22 0:15:49
784 CountryLolino 0:42:22 0:15:49
785 CountryMikelkz 0:42:22 0:15:49
786 CountryAugusto Negrillo 0:42:23 0:15:50
787 Countryroberto tributi 0:42:23 0:15:50
788 Countrypierrot vedel 0:42:23 0:15:50
789 Countrykiker 0:42:24 0:15:51
790 CountryJavier Bringas Campo 0:42:24 0:15:51
791 CountryKai Tebbe 0:42:24 0:15:51
792 CountryArkadio 0:42:24 0:15:51
793 Countrygigi_1970 0:42:25 0:15:52
794 CountryIBÁÑEZ 0:42:25 0:15:52
795 CountryIl pirata 0:42:25 0:15:52
796 CountryPaulo Fernandez 0:42:26 0:15:53
797 CountryMarcoxr 0:42:26 0:15:53
798 CountryDonconfitero 0:42:26 0:15:53
799 CountryOmar Campagna 0:42:26 0:15:53
800 CountryYunke86 0:42:26 0:15:53
801 CountryFali Rodriguez 0:42:27 0:15:54
802 Countrythm77 0:42:27 0:15:54
803 CountryArturoGDG 0:42:27 0:15:54
804 CountryBala Azul 0:42:27 0:15:54
805 CountryAlcarazRc 0:42:27 0:15:54
806 Countryliernicar 0:42:28 0:15:55
807 CountryALATAC 0:42:28 0:15:55
808 CountryA. García-Bartolomé 0:42:28 0:15:55
809 CountryJaviBT 0:42:28 0:15:55
810 CountryMiquel Quetglas 0:42:28 0:15:55
811 CountryJavier Galindo 0:42:28 0:15:55
812 Countryjosean moreno 0:42:28 0:15:55
813 CountryQuim Sebastián i Montal 0:42:28 0:15:55
814 CountryJonatan SDZ 0:42:29 0:15:56
815 CountryCédric EHRMANN 0:42:29 0:15:56
816 CountryCesar Gustavo Arce 0:42:29 0:15:56
817 CountryJose Torrescusa 0:42:29 0:15:56
818 CountryGiuseppeArroyo 0:42:29 0:15:56
819 CountryOscar CR 0:42:29 0:15:56
820 CountryJavier Molinero 0:42:30 0:15:57
821 CountryRoland Gardeniers 0:42:30 0:15:57
822 CountryJabi Zabala Badiola 0:42:31 0:15:58
823 CountryLuichi66 0:42:31 0:15:58
824 CountryAlberto Bayod Tejedor 0:42:31 0:15:58
825 CountryIpedraz 0:42:31 0:15:58
826 CountryK.Høgh(eCKD) 0:42:32 0:15:59
827 CountryPatxi Barreda Frasno 0:42:32 0:15:59
828 CountryFrankwillier 0:42:32 0:15:59
829 CountryAlejandro Pazos Veiga 0:42:32 0:15:59
830 CountryMARKK 0:42:32 0:15:59
831 CountryPRAVO6BIKERS 0:42:32 0:15:59
832 CountryVíctor Frisach Boj 0:42:32 0:15:59
833 CountryNacho Alvarez 0:42:32 0:15:59
834 CountryEliseu 0:42:33 0:16:00
835 Countrydavid castillo gomez 0:42:33 0:16:00
836 CountryJulio Bueno Garcia 0:42:33 0:16:00
837 Countrylukar 0:42:33 0:16:00
838 CountryJavier Garcia 0:42:33 0:16:00
839 Countrymusicamonf 0:42:34 0:16:01
840 CountryHelmut Valvoda 0:42:34 0:16:01
841 CountrySalva Garcia 0:42:35 0:16:02
842 CountryMOLINETA40 0:42:35 0:16:02
843 CountryEtienne GAUTHIER 0:42:36 0:16:03
844 CountryJulipuja82 0:42:36 0:16:03
845 Countryjulien schouvey 0:42:36 0:16:03
846 CountryJon G 0:42:36 0:16:03
847 CountryMassa76 0:42:37 0:16:04
848 CountryRaúlSA 0:42:37 0:16:04
849 CountryIsmael Barba 0:42:38 0:16:05
850 CountryXabier Zurutuza Lasa 0:42:38 0:16:05
851 CountryJosex48 0:42:38 0:16:05
852 CountryPEKELAND 0:42:38 0:16:05
853 CountrySTEVE GIRAULT 0:42:39 0:16:06
854 CountryGuy Berkmans 0:42:39 0:16:06
855 CountryMoe Morillas 0:42:39 0:16:06
856 CountryIgnacio Sanchez 0:42:39 0:16:06
857 CountryGrusildo 0:42:39 0:16:06
858 CountryGary F 0:42:40 0:16:07
859 CountrySaki 0:42:40 0:16:07
860 CountryMulti 0:42:40 0:16:07
861 CountryJavi Cárdaba 0:42:40 0:16:07
862 Countrylaurent martin 0:42:40 0:16:07
863 CountryJoselillo Martin Huguet 0:42:40 0:16:07
864 CountryRaul Galdeano Escalonilla 0:42:40 0:16:07
865 CountryRubaMorsa 0:42:41 0:16:08
866 CountryWTMiguel 0:42:41 0:16:08
867 CountryBENITXU 0:42:41 0:16:08
868 CountryWen the Man 0:42:41 0:16:08
869 CountryBlacky Blackbeard 0:42:41 0:16:08
870 CountryMiguel M 0:42:42 0:16:09
871 CountryJavi Márquez 0:42:42 0:16:09
872 Countryjaume salamanca moragues 0:42:42 0:16:09
873 CountryFélix Panadero 0:42:43 0:16:10
874 Countrybaranda 0:42:44 0:16:11
875 CountryTIZONA 0:42:44 0:16:11
876 Countrym.søgaard 0:42:44 0:16:11
877 CountryAntonio Kantero 0:42:44 0:16:11
878 Countryjuanlu rodriguez martinez 0:42:44 0:16:11
879 CountryPatrick Dall'Aglio 0:42:44 0:16:11
880 CountryROKO 0:42:45 0:16:12
881 Countryyvescherbourg yves 0:42:45 0:16:12
882 Country3Højvang eCKD kim 0:42:45 0:16:12
883 CountryAngel Lucio Dominguez Quijada 0:42:45 0:16:12
884 CountryVicente Alonso 0:42:45 0:16:12
885 CountryPeterman13 0:42:45 0:16:12
886 CountryMoi Cervera Camps 0:42:46 0:16:13
887 CountryTorkia 0:42:46 0:16:13
888 CountryJose A. Parra 0:42:46 0:16:13
889 CountryFRAROGI 2010 0:42:46 0:16:13
890 Countryjulio Cela clavero 0:42:46 0:16:13
891 CountryDANIPG Perez Guilabert 0:42:46 0:16:13
892 CountryIvan Garcia 0:42:46 0:16:13
893 Countrymegic 0:42:47 0:16:14
894 CountryAntonio Bartual Uriarte 0:42:48 0:16:15
895 CountryManguenoti 0:42:49 0:16:16
896 CountryEnrico Ercole 0:42:49 0:16:16
897 Countryian b b 0:42:49 0:16:16
898 CountryDEIVIDCAR 0:42:49 0:16:16
899 CountryPEP 0:42:49 0:16:16
900 Countrymanelsalud 0:42:50 0:16:17
901 CountryRicardo Marques 0:42:50 0:16:17
902 CountryLuis Matellanes 0:42:51 0:16:18
903 CountrySERGIO DE MIER AHEDO 0:42:51 0:16:18
904 CountryJaime de la Rosa Paredes 0:42:51 0:16:18
905 Countryborja merino soria 0:42:52 0:16:19
906 CountryLuis Gonzalez Moreiro 0:42:52 0:16:19
907 CountryDiegoMendoza Mendoza 0:42:52 0:16:19
908 CountryJerome Dupré 0:42:52 0:16:19
909 CountryÁngel GARRIGA Polledo 0:42:53 0:16:20
910 CountryHenrik Kjær 0:42:53 0:16:20
911 CountryJavier Cuevas 0:42:54 0:16:21
912 CountryMauricio Ocampo 0:42:54 0:16:21
913 CountryCarlos Mauricio Diaz 0:42:54 0:16:21
914 CountryJoan Manel Alonso Bernal 0:42:54 0:16:21
915 CountryANGEL G.I. 0:42:54 0:16:21
916 Countrymanuel duran bravo 0:42:54 0:16:21
917 CountryKurry 0:42:54 0:16:21
918 CountryDOMINGO RAMOS ORDÓÑEZ 0:42:54 0:16:21
919 Countrymcadalso 0:42:55 0:16:22
920 CountryMeyiso29 0:42:56 0:16:23
921 CountryAlex ruiz 0:42:56 0:16:23
922 CountryRober HP 0:42:56 0:16:23
923 CountryPablo Hdez 0:42:56 0:16:23
924 Countryherve tenaerts 0:42:57 0:16:24
925 CountryGoulven GUEGAN 0:42:57 0:16:24
926 CountryJavier Villares 0:42:58 0:16:25
927 Countrysimon71 0:42:58 0:16:25
928 CountryNARANJITOPOWER 0:42:58 0:16:25
929 CountryARNAUD LARCENET 0:42:59 0:16:26
930 CountryEsbenCHR 0:42:59 0:16:26
931 CountryTOMIC Mir 0:42:59 0:16:26
932 CountryHector Lapeyra 0:42:59 0:16:26
933 Countryjbgjavier 0:43:00 0:16:27
934 CountryJan Berthelsen 0:43:00 0:16:27
935 Countrymunyec 0:43:00 0:16:27
936 CountryMichael Jakobsen 0:43:00 0:16:27
937 CountryEnrico Migliasso 0:43:00 0:16:27
938 CountryTito41 0:43:00 0:16:27
939 CountryAitor Odriozola Zubillaga 0:43:00 0:16:27
940 CountryBonthekke 0:43:01 0:16:28
941 CountryFreds57 0:43:01 0:16:28
942 CountryRubén Muñoz Vicente 0:43:01 0:16:28
943 CountryDon Bortx 0:43:01 0:16:28
944 CountrySchette 0:43:02 0:16:29
945 CountryMiguel Rivera 0:43:03 0:16:30
946 CountryRicardo Figueiredo 0:43:03 0:16:30
947 CountryCosta 0:43:03 0:16:30
948 CountryMiguel Angel Redondo Salas 0:43:04 0:16:31
949 Countrypipette 0:43:04 0:16:31
950 CountryCheso 0:43:05 0:16:32
951 CountryPasco 972 0:43:06 0:16:33
952 CountryFrancisco Javier Garcia Muñoz 0:43:06 0:16:33
953 CountryC.Cubas 0:43:07 0:16:34
954 CountryMitja Penca 0:43:07 0:16:34
955 CountryBrankias 0:43:07 0:16:34
956 CountryJkrobles 0:43:08 0:16:35
957 CountryElmEnDa 0:43:08 0:16:35
958 CountryWarren Porteous 0:43:08 0:16:35
959 Countryaimar lizarra guridi 0:43:08 0:16:35
960 CountryAdriRuFe 0:43:09 0:16:36
961 CountryIron Iberic Luis 0:43:09 0:16:36
962 CountrySimone Tucci 0:43:09 0:16:36
963 Countryemifel 0:43:09 0:16:36
964 CountryPAULETTI A. 0:43:09 0:16:36
965 CountryIckle 0:43:10 0:16:37
966 CountryPablo Villanueva 0:43:10 0:16:37
967 CountryPanadero 0:43:11 0:16:38
968 CountryRicky Acera 0:43:11 0:16:38
969 CountryEbismarc 0:43:12 0:16:39
970 CountryCesar Salvado Estorach 0:43:12 0:16:39
971 CountryJuan Carlos Garrido 0:43:13 0:16:40
972 CountryALKOMBA 0:43:13 0:16:40
973 CountryIsaac Romero 0:43:13 0:16:40
974 CountryANGEL ALBARRAN 0:43:13 0:16:40
975 CountryJavier Domingo Serrano 0:43:13 0:16:40
976 CountryMACPASTI 0:43:15 0:16:42
977 CountryJuan jo Rodriguez 0:43:16 0:16:43
978 Countryalberto maldonado 0:43:16 0:16:43
979 CountryVictor Galayo 0:43:16 0:16:43
980 Country#influenzeRedHair Torres Mejias 0:43:16 0:16:43
981 CountryGian Carlo Tesini 0:43:16 0:16:43
982 CountrySimon Andreassen 0:43:17 0:16:44
983 CountryNacho Perez De Prada 0:43:17 0:16:44
984 Countryjose felix bilbao villate 0:43:18 0:16:45
985 CountryRubén Castro 0:43:19 0:16:46
986 Countryantonio zapata 0:43:19 0:16:46
987 CountryAngel Plaza 0:43:19 0:16:46
988 CountryIsmaelbclp 0:43:19 0:16:46
989 CountryDavid García 0:43:19 0:16:46
990 Countryfelipe gil monroig 0:43:19 0:16:46
991 CountryAuro 0:43:20 0:16:47
992 Country#HACT Viktor 0:43:20 0:16:47
993 Countryjordiportabgr 0:43:20 0:16:47
994 CountryMTB MTB 0:43:20 0:16:47
995 CountryGeiner Gutierrez 0:43:20 0:16:47
996 CountryANTONIO GUARIDO 0:43:20 0:16:47
997 CountryDCU.Kenneth.Riis 0:43:21 0:16:48
998 CountryPEDRO PEREZ BARAJAS 0:43:21 0:16:48
999 CountryGonzalo Almoguera 0:43:21 0:16:48
1000 CountryKikejs 0:43:22 0:16:49
1001 CountryCian8 0:43:22 0:16:49
1002 CountryRagacas 0:43:23 0:16:50
1003 CountryPEPE DIEZ 0:43:23 0:16:50
1004 CountryCharlycc 0:43:23 0:16:50
1005 Countrym3n0r 0:43:24 0:16:51
1006 CountryDAVID TORRES GONZALEZ 0:43:24 0:16:51
1007 Countrymario garcia 0:43:24 0:16:51
1008 CountryLuisFerDJ 0:43:24 0:16:51
1009 CountryJon Aresti 0:43:25 0:16:52
1010 CountryFSI91650 0:43:25 0:16:52
1011 CountryAlberto Céspedes Ramos 0:43:25 0:16:52
1012 CountryDany Rossi 0:43:25 0:16:52
1013 CountryLuca Rameletti 0:43:26 0:16:53
1014 Countryjabu 0:43:26 0:16:53
1015 CountryPablo Lopez 0:43:26 0:16:53
1016 CountryDiego García Pando 0:43:26 0:16:53
1017 CountryOriol Sanchez 0:43:26 0:16:53
1018 CountryJOSELE GOMEZ 0:43:27 0:16:54
1019 CountryRooooooooos 0:43:27 0:16:54
1020 CountryEric Caballero 0:43:28 0:16:55
1021 CountryJulián Migales Iranzo 0:43:28 0:16:55
1022 Country3Pedergas 0:43:29 0:16:56
1023 CountryJosu Lerma 0:43:29 0:16:56
1024 Countrycricri59520 0:43:29 0:16:56
1025 CountryPaquito Tarantino 0:43:29 0:16:56
1026 CountryDeyvit 0:43:30 0:16:57
1027 CountryPeter Aamand 0:43:30 0:16:57
1028 CountryRoberto Ginzo 0:43:30 0:16:57
1029 Countryguido lo iacono 0:43:31 0:16:58
1030 CountryManuel Dios Cochon 0:43:31 0:16:58
1031 CountryJavi_cii 0:43:31 0:16:58
1032 CountryJonas A 0:43:31 0:16:58
1033 CountryBlackflamenco 0:43:31 0:16:58
1034 CountryRoberto Fernández Suárez 0:43:31 0:16:58
1035 CountryArenilla 0:43:32 0:16:59
1036 CountryIsmael Peinado 0:43:32 0:16:59
1037 CountryElperito 0:43:32 0:16:59
1038 CountrySergitooo 0:43:32 0:16:59
1039 CountryVillares 0:43:32 0:16:59
1040 CountryJust4fun 0:43:33 0:17:00
1041 CountryPacoAguilera 0:43:33 0:17:00
1042 CountryDaniel García Garcerá 0:43:33 0:17:00
1043 CountryAnderca 0:43:33 0:17:00
1044 CountrySantiago Albeniz Martierena 0:43:33 0:17:00
1045 CountryFeliu Coronado Justicia 0:43:33 0:17:00
1046 CountryGila 0:43:34 0:17:01
1047 Countryjose ignacio fuentes padron 0:43:34 0:17:01
1048 CountryManuel Díaz 0:43:34 0:17:01
1049 CountryNacho:r:r 0:43:34 0:17:01
1050 CountryMartin Cooper 0:43:35 0:17:02
1051 CountryLørval 0:43:36 0:17:03
1052 CountryPESHMERGA 0:43:36 0:17:03
1053 Countryjlmburgos 0:43:36 0:17:03
1054 CountryHache46 0:43:36 0:17:03
1055 CountryAlberto Del Río 0:43:36 0:17:03
1056 CountryTinker 0:43:36 0:17:03
1057 CountryGIANLUCA BOSUSCO 0:43:37 0:17:04
1058 Countrydani Caetano 0:43:37 0:17:04
1059 CountryArturo Alonso 0:43:37 0:17:04
1060 CountryJens Reinhart Rasmussen eCKD 0:43:38 0:17:05
1061 CountryTonivil 0:43:38 0:17:05
1062 CountryPreben Thomsen 0:43:38 0:17:05
1063 CountryJavier Pérez Pajares 0:43:38 0:17:05
1064 CountryLuis Fernandez Martinez 0:43:38 0:17:05
1065 CountryÁLVARO CASANAVA MOYANO 0:43:38 0:17:05
1066 Countryla gran nueve sastondo 0:43:39 0:17:06
1067 CountryAdam Willmot 0:43:39 0:17:06
1068 CountryDRACHIR22 0:43:39 0:17:06
1069 CountryBaltasar Figueiras 0:43:39 0:17:06
1070 Countrysubi ditas 0:43:40 0:17:07
1071 CountryTOÑEJO -CI7 0:43:40 0:17:07
1072 CountryVictor vellvé Álvarez 0:43:40 0:17:07
1073 CountryEgus 0:43:41 0:17:08
1074 CountryCaballero oscuro 0:43:41 0:17:08
1075 CountryJuan Jose Morales Sanchez 0:43:41 0:17:08
1076 CountryBorri piero 0:43:42 0:17:09
1077 CountryGeorge Gousias 0:43:42 0:17:09
1078 CountryDetlef Meinert 0:43:42 0:17:09
1079 CountryWatxija 0:43:43 0:17:10
1080 CountryMTB Gunnar 0:43:43 0:17:10
1081 CountryAlfon74 0:43:43 0:17:10
1082 CountryKlvillo 0:43:43 0:17:10
1083 CountryChema Cortes Castedo 0:43:43 0:17:10
1084 Countrybenoitleg 0:43:43 0:17:10
1085 CountrySamufisio 0:43:43 0:17:10
1086 Countryvila 0:43:44 0:17:11
1087 CountryAfga 0:43:44 0:17:11
1088 CountryAlessio Conti 0:43:44 0:17:11
1089 CountryDIEGO DIAZ 0:43:44 0:17:11
1090 Countryander 0:43:45 0:17:12
1091 CountryGege'53 0:43:45 0:17:12
1092 Countrypedro de lucas 0:43:45 0:17:12
1093 Countrylionel 0:43:46 0:17:13
1094 CountryDerek Milne 0:43:46 0:17:13
1095 CountryRobertex 0:43:46 0:17:13
1096 CountryRamiro Marina 0:43:46 0:17:13
1097 CountryDavid Amatriain Berdegue 0:43:46 0:17:13
1098 CountryMicrokid 0:43:47 0:17:14
1099 CountryBig Ring 0:43:47 0:17:14
1100 CountryEliseo Vilaplana 0:43:48 0:17:15
1101 CountrySean Poole 0:43:48 0:17:15
1102 CountryJalopin 0:43:48 0:17:15
1103 CountryPatrick Robl 0:43:49 0:17:16
1104 CountryMaic CV Biker's 0:43:49 0:17:16
1105 CountryJ-P Pampérou 0:43:49 0:17:16
1106 CountryRodia Frédéric 0:43:49 0:17:16
1107 CountryDingo 0:43:50 0:17:17
1108 CountryBadaman 0:43:50 0:17:17
1109 CountryLeantho 0:43:50 0:17:17
1110 CountryGianno 0:43:50 0:17:17
1111 CountryJosé Manuel Martín Sánchez 0:43:50 0:17:17
1112 CountryJérôme Flucher 0:43:50 0:17:17
1113 CountryGödi 0:43:51 0:17:18
1114 Countryalvaro muñoz 0:43:51 0:17:18
1115 CountryCésar Sempere 0:43:51 0:17:18
1116 Countryjose maria Ridruejo penco 0:43:52 0:17:19
1117 CountryJosé manuel Funez 0:43:53 0:17:20
1118 Countrygabriele restuccia 0:43:53 0:17:20
1119 CountryCarlos Saenz Ferreira 0:43:53 0:17:20
1120 CountryMichel Duits 0:43:53 0:17:20
1121 CountryDiego Lale 0:43:53 0:17:20
1122 CountryJL_LOPEZ 0:43:53 0:17:20
1123 CountryPatrick CHARLTON 0:43:53 0:17:20
1124 CountryXavier S. 0:43:54 0:17:21
1125 CountrySPIKE *LENDRI* 0:43:54 0:17:21
1126 CountryDavid Martin 0:43:54 0:17:21
1127 Countrypierre vosgien 0:43:54 0:17:21
1128 CountryTia89 0:43:54 0:17:21
1129 CountrySegia 69 0:43:54 0:17:21
1130 Countrybruno campos 0:43:55 0:17:22
1131 CountryGerardo Lozano Real 0:43:55 0:17:22
1132 Countryvictor freitas 0:43:56 0:17:23
1133 CountryMarc Arriaza 0:43:56 0:17:23
1134 CountryANTONIO FERRANDO MENGUAL 0:43:56 0:17:23
1135 Countryalejandro carazo 0:43:56 0:17:23
1136 Countrygabet yannick 0:43:56 0:17:23
1137 CountryJordi Fageda 0:43:56 0:17:23
1138 CountryMARTIN GARCIA MIRANDA 0:43:56 0:17:23
1139 Countryrussell barber 0:43:57 0:17:24
1140 CountryImendi 0:43:57 0:17:24
1141 Countrymarcos bolado abad 0:43:57 0:17:24
1142 CountryRubenS. 0:43:57 0:17:24
1143 CountryXabier Leonet Boubeta 0:43:57 0:17:24
1144 CountryMattia Poldi 0:43:57 0:17:24
1145 CountryDolfus 0:43:58 0:17:25
1146 CountryBeef 0:43:58 0:17:25
1147 CountryAlexander Aparicio 0:43:58 0:17:25
1148 CountryDavid Milan 0:43:58 0:17:25
1149 CountryGustavo adolfo Perdomo Garcia 0:43:58 0:17:25
1150 CountryMARTIN TERRA 0:43:58 0:17:25
1151 CountryAndreas Saenger 0:43:58 0:17:25
1152 CountryLorenzo Tonetta 0:43:58 0:17:25
1153 Countrycesc camps 0:43:59 0:17:26
1154 CountryFlorijan Ambrožič 0:43:59 0:17:26
1155 CountryCocoguagua 0:44:00 0:17:27
1156 CountrySergio Leonardo Buitrago Suarez 0:44:00 0:17:27
1157 CountryRichard Markham 0:44:01 0:17:28
1158 CountryJUAN GARCIA ARRES 0:44:01 0:17:28
1159 CountryMichał Stachowicz 0:44:01 0:17:28
1160 Country14 FreksenDK 0:44:02 0:17:29
1161 Countrychinete 0:44:02 0:17:29
1162 CountryC.Svendsen 0:44:02 0:17:29
1163 CountryFer Diplito 0:44:02 0:17:29
1164 Countryfabio martinez 0:44:02 0:17:29
1165 CountryJorge Costa Sorolla 0:44:02 0:17:29
1166 CountryEnrique Aguado Vergara 0:44:03 0:17:30
1167 CountryJoe Gugliuzza 0:44:03 0:17:30
1168 CountryBerto_gp 0:44:03 0:17:30
1169 CountryDave Scotty 72 0:44:03 0:17:30
1170 CountryJaime Barranco 0:44:04 0:17:31
1171 CountryMario le vrai 0:44:04 0:17:31
1172 CountryAndré Jensen 0:44:05 0:17:32
1173 Countryignacio menor navarro 0:44:05 0:17:32
1174 CountryRodas Tornel 0:44:05 0:17:32
1175 CountryAitor Ollo 0:44:05 0:17:32
1176 CountryGoyo/ 0:44:05 0:17:32
1177 CountryGiancarlo Genovese 0:44:05 0:17:32
1178 CountryMattia Lionetti 0:44:06 0:17:33
1179 CountryMario Toro 0:44:06 0:17:33
1180 Countrypauli vicario 0:44:06 0:17:33
1181 Countrymatt price 0:44:06 0:17:33
1182 CountryPablichenco 0:44:06 0:17:33
1183 CountryDavid Lleida 0:44:06 0:17:33
1184 CountryJon 0:44:06 0:17:33
1185 CountryJosetheend 0:44:06 0:17:33
1186 Countryildefonso madrid 0:44:06 0:17:33
1187 CountryLennart Mårtensson 0:44:07 0:17:34
1188 CountryJorge Rodriguez Ramos 0:44:07 0:17:34
1189 Countrycarlosib72 0:44:07 0:17:34
1190 CountryDevil 0:44:07 0:17:34
1191 CountryHans Jørgen Rasmussen 0:44:07 0:17:34
1192 CountryIker Aransolo ajuria 0:44:08 0:17:35
1193 CountryD.Banesto 0:44:08 0:17:35
1194 CountryJose Ruano 0:44:08 0:17:35
1195 CountryEdu2124 0:44:09 0:17:36
1196 CountrySuco Speed 0:44:09 0:17:36
1197 Countrychano74 0:44:09 0:17:36
1198 CountryQuim Roca 0:44:10 0:17:37
1199 Country3Beicker 0:44:10 0:17:37
1200 Countryyuyuplay 0:44:10 0:17:37
1201 CountryGABRI HDEZ PAGES 0:44:10 0:17:37
1202 CountryPetete Allez 0:44:10 0:17:37
1203 CountryMigLopMad 0:44:11 0:17:38
1204 CountryAlfonso Maza 0:44:11 0:17:38
1205 CountryLebon 0:44:11 0:17:38
1206 Countrylolo tortosa 0:44:11 0:17:38
1207 CountrySALVAORICO 0:44:12 0:17:39
1208 CountryEmiJGB 0:44:12 0:17:39
1209 CountryEloyFaster 0:44:12 0:17:39
1210 CountryFab77 0:44:12 0:17:39
1211 Countryroberto lopez 0:44:12 0:17:39
1212 CountryIan Lawler 0:44:12 0:17:39
1213 CountrySEBASTIEN QUIGNON 0:44:12 0:17:39
1214 Countryjuanmaseven 0:44:12 0:17:39
1215 CountryAMANDO cabello Arribas 0:44:13 0:17:40
1216 Countryyann bouchet 0:44:13 0:17:40
1217 CountryJose Roldan 0:44:14 0:17:41
1218 CountryJuan Comedia 0:44:14 0:17:41
1219 CountryBen33 0:44:14 0:17:41
1220 CountryAguilucho 0:44:15 0:17:42
1221 CountryJavier FJF 0:44:15 0:17:42
1222 CountryLaldo-70 0:44:16 0:17:43
1223 CountryPolo Moriles 0:44:16 0:17:43
1224 CountryArturo Paz Castro 0:44:16 0:17:43
1225 CountryJoan Linares Marmol 0:44:16 0:17:43
1226 CountryAtance Garcia 0:44:16 0:17:43
1227 CountryBiel Bordoy Mesquida 0:44:16 0:17:43
1228 CountryRG77 0:44:17 0:17:44
1229 CountryALOIA 0:44:17 0:17:44
1230 CountryMichael Juul 0:44:18 0:17:45
1231 CountryPedri 0:44:18 0:17:45
1232 Countryjesus xerez 0:44:19 0:17:46
1233 CountryDe Diego 0:44:19 0:17:46
1234 CountryJoerri 0:44:19 0:17:46
1235 CountryIsmael Blanco Soria 0:44:19 0:17:46
1236 CountryJuli_cl19 0:44:19 0:17:46
1237 CountrySange 0:44:19 0:17:46
1238 CountryGlenn Gallagher 0:44:19 0:17:46
1239 CountryRafel Brull Vaqué 0:44:19 0:17:46
1240 CountryElena Tortajada 0:44:19 0:17:46
1241 CountryCarlos Amezcua Soler 0:44:19 0:17:46
1242 CountryLuther Blisset 0:44:20 0:17:47
1243 CountryAitor Campos 0:44:20 0:17:47
1244 CountryMiquel Santandreu 0:44:20 0:17:47
1245 CountryKeith Nairn 0:44:20 0:17:47
1246 CountryJavier Downey 0:44:21 0:17:48
1247 CountryPiolín AMG 0:44:21 0:17:48
1248 CountryEspartaco 0:44:21 0:17:48
1249 CountryMardo 0:44:22 0:17:49
1250 CountryLlui7 0:44:22 0:17:49
1251 CountryAmbros79 0:44:22 0:17:49
1252 CountryAngel Conesa 0:44:22 0:17:49
1253 Countrycmur 0:44:22 0:17:49
1254 CountryERTOCHO 0:44:22 0:17:49
1255 CountryTino Santana Armas 0:44:22 0:17:49
1256 CountryClaudio Spinelli 0:44:22 0:17:49
1257 CountryCaboso 0:44:23 0:17:50
1258 CountryAiram Peraza Quintero 0:44:23 0:17:50
1259 CountryHairago 0:44:23 0:17:50
1260 CountryReinold 0:44:23 0:17:50
1261 CountryFabrizio Zanni 0:44:23 0:17:50
1262 Countrypakitoxxl 0:44:24 0:17:51
1263 CountryCarsten Larsen 0:44:25 0:17:52
1264 CountryRoco 0:44:25 0:17:52
1265 Countryjesus navarro garcia 0:44:25 0:17:52
1266 CountryRUBENTXO 13 0:44:25 0:17:52
1267 Countryrafita70 0:44:26 0:17:53
1268 CountryJulitoBelMin 0:44:26 0:17:53
1269 CountryFelipe Soria Rodríguez 0:44:26 0:17:53
1270 Countryalberto gonzalez 0:44:26 0:17:53
1271 CountryThomas Holm Petersen 0:44:26 0:17:53
1272 Countryfabrizio zambello 0:44:26 0:17:53
1273 CountryWalo 0:44:27 0:17:54
1274 CountryUr Tr 0:44:27 0:17:54
1275 CountryJuanjo79 0:44:27 0:17:54
1276 CountryNaia Leonet 0:44:27 0:17:54
1277 CountryFabio Barcaroli 0:44:27 0:17:54
1278 CountryGestapo 0:44:28 0:17:55
1279 CountryCacaítoR 0:44:28 0:17:55
1280 Countrydaniel gonzalez 0:44:28 0:17:55
1281 CountryRubén Pascual Sevilla 0:44:28 0:17:55
1282 Countrydawidth 0:44:28 0:17:55
1283 CountryABELINHO79 0:44:29 0:17:56
1284 CountrySergio Rubio Isern 0:44:29 0:17:56
1285 CountryROBERT MASCARELL BAYARRI 0:44:29 0:17:56
1286 CountryStefano Conca 0:44:30 0:17:57
1287 CountryWalter Bentele 0:44:30 0:17:57
1288 Countryalexander torres gonzalez 0:44:30 0:17:57
1289 CountryJoaquín Alonso Hermida 0:44:31 0:17:58
1290 Country06 H Wilkens 1964 0:44:31 0:17:58
1291 CountryGadea 0:44:31 0:17:58
1292 Countryjavier polinario 0:44:32 0:17:59
1293 CountryMario Brunete 0:44:32 0:17:59
1294 CountryNicolas Orozco 0:44:32 0:17:59
1295 CountryBorja gomez carrilo 0:44:32 0:17:59
1296 CountryMassimo Dal ben 0:44:32 0:17:59
1297 CountryColi 0:44:33 0:18:00
1298 CountryJulen rezol 0:44:33 0:18:00
1299 CountryCevipower 0:44:33 0:18:00
1300 Countrypau monasterio valls 0:44:33 0:18:00
1301 Countryjesus vallejo 0:44:33 0:18:00
1302 CountryGerman bosque 0:44:34 0:18:01
1303 Countrytoni mtx 0:44:34 0:18:01
1304 CountryFrede Jensen 0:44:34 0:18:01
1305 Countrycarlos aldea 0:44:35 0:18:02
1306 CountryDavidPS 0:44:35 0:18:02
1307 Countrycarlo273 0:44:35 0:18:02
1308 CountryAlbert Gimenez Busquets 0:44:35 0:18:02
1309 CountryNathan Lawrence 0:44:35 0:18:02
1310 Countrydavid sobradiel 0:44:36 0:18:03
1311 Countryandy Plews 0:44:36 0:18:03
1312 CountryRafael R. R. 0:44:36 0:18:03
1313 CountryCARLOS MOJICA 0:44:36 0:18:03
1314 CountryThe Boss 60 0:44:36 0:18:03
1315 CountryRafa Sabater 0:44:36 0:18:03
1316 CountryGustavo Montalvillo Juanes 0:44:36 0:18:03
1317 CountryPaco Sánchez 0:44:36 0:18:03
1318 CountryRaquell De Blas Gomez 0:44:36 0:18:03
1319 Countrymigueltac 0:44:37 0:18:04
1320 CountryJakob Jensen 0:44:37 0:18:04
1321 CountryRicrd 0:44:39 0:18:06
1322 CountryNATXO ANGULO 0:44:39 0:18:06
1323 CountryMunuera 0:44:39 0:18:06
1324 CountryAlex Aragon Leyton 0:44:39 0:18:06
1325 CountrySINTO 0:44:40 0:18:07
1326 Countrydbobi 0:44:40 0:18:07
1327 CountryFausto Kayser 0:44:40 0:18:07
1328 CountryDavidgm7 0:44:40 0:18:07
1329 CountryIker Ibáñez Angoitia 0:44:40 0:18:07
1330 CountryIker Parrado Lago 0:44:40 0:18:07
1331 CountryJuan Castelló 0:44:41 0:18:08
1332 CountryBoštjan Celan 0:44:41 0:18:08
1333 CountryD.Rueda botania 0:44:41 0:18:08
1334 CountryTocupa 0:44:41 0:18:08
1335 CountryEugenio Mendoza 0:44:42 0:18:09
1336 Countryalbertoski 0:44:42 0:18:09
1337 CountryLars Snedker 0:44:42 0:18:09
1338 CountryJMP1957 0:44:42 0:18:09
1339 Countryjuli 0:44:42 0:18:09
1340 CountryMenviel 0:44:42 0:18:09
1341 CountryEdgar Caycedo 0:44:42 0:18:09
1342 CountryAupacheca 0:44:43 0:18:10
1343 CountryDRAGONFLY 0:44:43 0:18:10
1344 CountryDavid Esteban de Mateo 0:44:43 0:18:10
1345 Countrylauren andrik 0:44:43 0:18:10
1346 CountryAdrian Alejo Correa Gonzalez 0:44:43 0:18:10
1347 CountryNAVAJETAS 0:44:44 0:18:11
1348 CountryMantuono 0:44:44 0:18:11
1349 CountryFrederic Martinez 0:44:44 0:18:11
1350 CountryJulian Duque 0:44:44 0:18:11
1351 CountryOnileva 0:44:45 0:18:12
1352 CountryFranvl 0:44:45 0:18:12
1353 CountryMichael Skov 0:44:45 0:18:12
1354 CountryRomelito 0:44:45 0:18:12
1355 CountryEstevenet 0:44:45 0:18:12
1356 CountryMinguez 0:44:46 0:18:13
1357 CountryMichal Jakubiak 0:44:46 0:18:13
1358 Countryjoserra bar 0:44:46 0:18:13
1359 CountryTino AG 0:44:46 0:18:13
1360 CountryAdrian Suarez 0:44:46 0:18:13
1361 CountryJuanqui_67 0:44:46 0:18:13
1362 CountryFernando Jose Delgado Masanet 0:44:46 0:18:13
1363 CountryGerard Fargas Renart 0:44:46 0:18:13
1364 CountryGalloClaudio 0:44:47 0:18:14
1365 CountryMarcel Kuntschke 0:44:47 0:18:14
1366 CountryFermoreno 0:44:48 0:18:15
1367 CountryPhilou35 0:44:49 0:18:16
1368 CountryJapiooh 0:44:49 0:18:16
1369 CountryDidi 0:44:49 0:18:16
1370 CountryMartin Whelan 0:44:49 0:18:16
1371 Countryjavier ornia 0:44:49 0:18:16
1372 CountryVICAFON 0:44:49 0:18:16
1373 CountryAlberto Garcia Marin 0:44:50 0:18:17
1374 CountryJavi Luz 0:44:50 0:18:17
1375 CountryJAUME SUREDA 0:44:50 0:18:17
1376 Countrysanti abel 0:44:50 0:18:17
1377 CountryH U G O Buso 0:44:50 0:18:17
1378 Countrycastellanos castellanos torrado 0:44:51 0:18:18
1379 Countryicapa 0:44:51 0:18:18
1380 CountryAbel SL 0:44:52 0:18:19
1381 CountryANDER GONDRA 0:44:52 0:18:19
1382 CountryGrrrpa 0:44:52 0:18:19
1383 CountryBrunostella 0:44:52 0:18:19
1384 Countryoscar alberto cardona fernandez 0:44:52 0:18:19
1385 CountryCarlos Gu 0:44:52 0:18:19
1386 CountryCarbaR 0:44:53 0:18:20
1387 Countrygianni schwanauer 0:44:53 0:18:20
1388 CountryCARLOS MM 0:44:53 0:18:20
1389 CountryHebeco 0:44:53 0:18:20
1390 CountryHans Egon Sommer 0:44:53 0:18:20
1391 CountryBabamaël 0:44:53 0:18:20
1392 CountryDavid Buades 0:44:53 0:18:20
1393 CountryJohnvdub 0:44:54 0:18:21
1394 CountryElgregos 0:44:55 0:18:22
1395 Countrylaporte guy 0:44:55 0:18:22
1396 CountryJavi Pellicer Rojo 0:44:55 0:18:22
1397 CountryBeKri 0:44:55 0:18:22
1398 CountryActuario 0:44:55 0:18:22
1399 CountryHUGO CHAVES 0:44:56 0:18:23
1400 CountryFrancokiocholi 0:44:56 0:18:23
1401 CountryFlemming Stuhr 0:44:56 0:18:23
1402 CountryBufalosao 0:44:56 0:18:23
1403 CountryKikosis 0:44:56 0:18:23
1404 CountryIgnacio Otxotorena 0:44:56 0:18:23
1405 Countryvcarrerasrush 0:44:57 0:18:24
1406 CountryPer Erik Jørgensen 0:44:57 0:18:24
1407 CountryXabi_xdv 0:44:57 0:18:24
1408 CountryScalpel 0:44:57 0:18:24
1409 Countryjavinesk 0:44:57 0:18:24
1410 CountryJosep Cantin 0:44:58 0:18:25
1411 CountryPino Amico 0:44:58 0:18:25
1412 CountryRR 70 0:44:58 0:18:25
1413 Countrykorvux 0:44:58 0:18:25
1414 CountryWillbunch 0:44:58 0:18:25
1415 CountryJesús Cusí 0:44:59 0:18:26
1416 CountryAingeru 0:44:59 0:18:26
1417 CountryPqtHdez 0:45:00 0:18:27
1418 CountryUGEL-CAT 0:45:00 0:18:27
1419 CountryAlejo Lopez Marin 0:45:00 0:18:27
1420 CountryAlejandro Sanz 0:45:01 0:18:28
1421 Countrymaurizio chiarion 0:45:01 0:18:28
1422 CountryLaurent Berga 0:45:01 0:18:28
1423 CountryJamie Brass 0:45:01 0:18:28
1424 Countryvictor arenal 0:45:02 0:18:29
1425 CountryCar 54 0:45:03 0:18:30
1426 Countryantonio tondi